| time (UTC) | temp F | wind direction | speed knots | gust knots | rain 1hr in | rain 24hr in | rain mn in | humidity % | barometer mb |
| 20260506211505 | 72 | 214 | 6.1 | 10.4 | 0.00 | 0.00 | 0.00 | 74 | 1007.7 |
| 20260506211005 | 72 | 216 | 5.2 | 15.6 | 0.00 | 0.00 | 0.00 | 74 | 1007.7 |
| 20260506210505 | 72 | 192 | 8.7 | 14.8 | 0.00 | 0.00 | 0.00 | 73 | 1007.6 |
| 20260506210005 | 73 | 217 | 4.3 | 14.8 | 0.00 | 0.00 | 0.00 | 73 | 1007.6 |
| 20260506205006 | 73 | 228 | 7.8 | 13.9 | 0.00 | 0.00 | 0.00 | 73 | 1007.5 |
| 20260506204505 | 73 | 214 | 2.6 | 13.9 | 0.00 | 0.00 | 0.00 | 73 | 1007.4 |
| 20260506204005 | 73 | 228 | 5.2 | 13.0 | 0.00 | 0.00 | 0.00 | 73 | 1007.3 |
| 20260506203506 | 73 | 193 | 6.1 | 12.2 | 0.00 | 0.00 | 0.00 | 72 | 1007.4 |
| 20260506203005 | 74 | 214 | 5.2 | 13.9 | 0.00 | 0.00 | 0.00 | 72 | 1007.5 |
| 20260506202505 | 74 | 222 | 0.9 | 13.0 | 0.00 | 0.00 | 0.00 | 72 | 1007.4 |
| 20260506202005 | 74 | 206 | 1.7 | 7.0 | 0.00 | 0.00 | 0.00 | 72 | 1007.4 |
| 20260506201005 | 74 | 207 | 8.7 | 14.8 | 0.00 | 0.00 | 0.00 | 71 | 1007.5 |
| 20260506200505 | 74 | 220 | 7.0 | 17.4 | 0.00 | 0.00 | 0.00 | 72 | 1007.6 |
| 20260506200005 | 73 | 197 | 2.6 | 10.4 | 0.00 | 0.00 | 0.00 | 74 | 1007.6 |
| 20260506195505 | 73 | 234 | 5.2 | 13.0 | 0.00 | 0.00 | 0.00 | 73 | 1007.7 |
| 20260506195005 | 73 | 222 | 0.9 | 15.6 | 0.00 | 0.00 | 0.00 | 74 | 1007.8 |
| 20260506194505 | 72 | 207 | 10.4 | 14.8 | 0.00 | 0.00 | 0.00 | 74 | 1007.8 |
| 20260506193005 | 69 | 216 | 3.5 | 13.0 | 0.00 | 0.00 | 0.00 | 78 | 1008.2 |
| 20260506192505 | 69 | 209 | 7.8 | 15.6 | 0.00 | 0.00 | 0.00 | 78 | 1008.3 |
| 20260506192005 | 69 | 222 | 9.6 | 14.8 | 0.00 | 0.00 | 0.00 | 78 | 1008.6 |
| 20260506191505 | 69 | 222 | 4.3 | 13.9 | 0.00 | 0.00 | 0.00 | 78 | 1008.3 |
| 20260506191005 | 70 | 212 | 11.3 | 25.2 | 0.00 | 0.00 | 0.00 | 77 | 1008.4 |
| 20260506190505 | 70 | 232 | 7.8 | 25.2 | 0.00 | 0.00 | 0.00 | 78 | 1008.3 |
| 20260506190006 | 70 | 209 | 4.3 | 20.0 | 0.00 | 0.00 | 0.00 | 78 | 1008.2 |
| 20260506185505 | 70 | 232 | 10.4 | 13.9 | 0.00 | 0.00 | 0.00 | 79 | 1008.2 |
| 20260506185005 | 70 | 205 | 6.1 | 14.8 | 0.00 | 0.00 | 0.00 | 79 | 1008.2 |
| 20260506184505 | 69 | 225 | 8.7 | 17.4 | 0.00 | 0.00 | 0.00 | 80 | 1008.5 |
| 20260506184005 | 69 | 226 | 11.3 | 13.0 | 0.00 | 0.00 | 0.00 | 80 | 1008.5 |
| 20260506183505 | 68 | 208 | 10.4 | 21.7 | 0.00 | 0.00 | 0.00 | 80 | 1008.7 |
| 20260506183006 | 69 | 227 | 7.8 | 21.7 | 0.00 | 0.00 | 0.00 | 80 | 1008.8 |
| 20260506182505 | 69 | 204 | 10.4 | 21.7 | 0.00 | 0.00 | 0.00 | 79 | 1008.8 |
| 20260506182005 | 69 | 202 | 8.7 | 15.6 | 0.00 | 0.00 | 0.00 | 79 | 1008.8 |
| 20260506181504 | 70 | 208 | 11.3 | 21.7 | 0.00 | 0.00 | 0.00 | 79 | 1008.8 |
| 20260506180505 | 69 | 213 | 7.0 | 13.0 | 0.00 | 0.00 | 0.00 | 83 | 1008.7 |
| 20260506180005 | 67 | 220 | 4.3 | 13.0 | 0.00 | 0.00 | 0.00 | 84 | 1008.7 |
| 20260506175005 | 67 | 186 | 6.1 | 18.2 | 0.00 | 0.00 | 0.00 | 82 | 1008.8 |
| 20260506174504 | 68 | 213 | 9.6 | 17.4 | 0.00 | 0.00 | 0.00 | 82 | 1008.8 |
| 20260506174005 | 67 | 204 | 3.5 | 17.4 | 0.00 | 0.00 | 0.00 | 82 | 1008.8 |
| 20260506173505 | 67 | 187 | 6.1 | 15.6 | 0.00 | 0.00 | 0.00 | 83 | 1008.8 |
| 20260506173005 | 66 | 209 | 4.3 | 17.4 | 0.00 | 0.00 | 0.00 | 83 | 1008.8 |
| 20260506172504 | 66 | 228 | 7.8 | 12.2 | 0.00 | 0.00 | 0.00 | 83 | 1009.0 |
| 20260506171505 | 66 | 209 | 6.1 | 12.2 | 0.00 | 0.00 | 0.00 | 84 | 1009.2 |
| 20260506171005 | 66 | 239 | 6.1 | 12.2 | 0.00 | 0.00 | 0.00 | 83 | 1009.2 |
| 20260506170505 | 67 | 194 | 5.2 | 10.4 | 0.00 | 0.00 | 0.00 | 82 | 1009.2 |
| 20260506170005 | 67 | 237 | 4.3 | 18.2 | 0.00 | 0.00 | 0.00 | 81 | 1009.4 |
| 20260506165505 | 68 | 204 | 5.2 | 12.2 | 0.00 | 0.00 | 0.00 | 79 | 1009.5 |
| 20260506165005 | 68 | 225 | 3.5 | 20.0 | 0.00 | 0.00 | 0.00 | 76 | 1009.5 |
| 20260506164504 | 70 | 215 | 11.3 | 20.0 | 0.00 | 0.00 | 0.00 | 74 | 1009.3 |
| 20260506164004 | 72 | 197 | 7.8 | 12.2 | 0.00 | 0.00 | 0.00 | 71 | 1009.4 |
| 20260506163505 | 73 | 221 | 8.7 | 17.4 | 0.00 | 0.00 | 0.00 | 70 | 1009.4 |
| 20260506163005 | 73 | 204 | 6.1 | 14.8 | 0.00 | 0.00 | 0.00 | 69 | 1009.5 |
| 20260506162505 | 73 | 217 | 8.7 | 17.4 | 0.00 | 0.00 | 0.00 | 69 | 1010.0 |
| 20260506162004 | 73 | 214 | 8.7 | 14.8 | 0.00 | 0.00 | 0.00 | 68 | 1010.2 |
| 20260506161005 | 74 | 216 | 4.3 | 13.0 | 0.00 | 0.00 | 0.00 | 65 | 1010.1 |
| 20260506160505 | 75 | 208 | 7.8 | 14.8 | 0.00 | 0.00 | 0.00 | 63 | 1010.3 |
| 20260506160005 | 76 | 236 | 7.8 | 13.0 | 0.00 | 0.00 | 0.00 | 64 | 1010.4 |
| 20260506155004 | 74 | 194 | 5.2 | 11.3 | 0.00 | 0.00 | 0.00 | 67 | 1010.3 |
| 20260506154005 | 73 | 199 | 7.0 | 13.0 | 0.00 | 0.00 | 0.00 | 66 | 1010.2 |
| 20260506153505 | 73 | 208 | 4.3 | 12.2 | 0.00 | 0.00 | 0.00 | 66 | 1010.1 |
| 20260506153005 | 73 | 208 | 7.8 | 13.0 | 0.00 | 0.00 | 0.00 | 64 | 1010.2 |
| 20260506152505 | 74 | 215 | 7.8 | 11.3 | 0.00 | 0.00 | 0.00 | 63 | 1010.4 |
| 20260506152005 | 74 | 210 | 3.5 | 10.4 | 0.00 | 0.00 | 0.00 | 63 | 1010.2 |
| 20260506151505 | 75 | 215 | 8.7 | 14.8 | 0.00 | 0.00 | 0.00 | 62 | 1010.5 |
| 20260506151005 | 75 | 234 | 6.1 | 13.9 | 0.00 | 0.00 | 0.00 | 62 | 1010.4 |
| 20260506150005 | 75 | 200 | 8.7 | 15.6 | 0.00 | 0.00 | 0.00 | 63 | 1010.2 |
| 20260506145505 | 74 | 232 | 7.8 | 14.8 | 0.00 | 0.00 | 0.00 | 64 | 1010.2 |
| 20260506145005 | 73 | 227 | 7.8 | 15.6 | 0.00 | 0.00 | 0.00 | 65 | 1010.2 |
| 20260506144505 | 73 | 213 | 5.2 | 11.3 | 0.00 | 0.00 | 0.00 | 65 | 1010.4 |
| 20260506144004 | 73 | 227 | 8.7 | 14.8 | 0.00 | 0.00 | 0.00 | 66 | 1010.3 |
| 20260506143005 | 72 | 188 | 5.2 | 11.3 | 0.00 | 0.00 | 0.00 | 65 | 1010.5 |
| 20260506142504 | 72 | 225 | 6.1 | 17.4 | 0.00 | 0.00 | 0.00 | 65 | 1010.4 |
| 20260506142004 | 73 | 187 | 6.1 | 17.4 | 0.00 | 0.00 | 0.00 | 64 | 1010.5 |
| 20260506141504 | 73 | 204 | 7.0 | 13.0 | 0.00 | 0.00 | 0.00 | 64 | 1010.5 |
| 20260506141004 | 73 | 218 | 7.8 | 14.8 | 0.00 | 0.00 | 0.00 | 63 | 1010.6 |
| 20260506140504 | 74 | 221 | 7.8 | 20.9 | 0.00 | 0.00 | 0.00 | 62 | 1010.7 |
| 20260506140005 | 75 | 222 | 2.6 | 17.4 | 0.00 | 0.00 | 0.00 | 62 | 1010.4 |
| 20260506135505 | 74 | 233 | 5.2 | 13.9 | 0.00 | 0.00 | 0.00 | 64 | 1010.3 |
| 20260506135004 | 73 | 229 | 7.0 | 15.6 | 0.00 | 0.00 | 0.00 | 64 | 1010.2 |
| 20260506134505 | 73 | 224 | 7.8 | 20.0 | 0.00 | 0.00 | 0.00 | 64 | 1010.4 |
| 20260506134005 | 73 | 214 | 6.1 | 13.9 | 0.00 | 0.00 | 0.00 | 65 | 1010.4 |
| 20260506133506 | 71 | 222 | 4.3 | 12.2 | 0.00 | 0.00 | 0.00 | 67 | 1010.5 |
| 20260506133006 | 71 | 215 | 6.1 | 12.2 | 0.00 | 0.00 | 0.00 | 66 | 1010.5 |
| 20260506132504 | 71 | 192 | 4.3 | 13.0 | 0.00 | 0.00 | 0.00 | 65 | 1010.5 |
| 20260506132005 | 72 | 193 | 12.2 | 17.4 | 0.00 | 0.00 | 0.00 | 64 | 1010.6 |
| 20260506131504 | 73 | 223 | 7.8 | 17.4 | 0.00 | 0.00 | 0.00 | 64 | 1010.7 |
| 20260506130005 | 74 | 240 | 7.0 | 15.6 | 0.00 | 0.00 | 0.00 | 61 | 1010.8 |
| 20260506125505 | 75 | 212 | 8.7 | 13.0 | 0.00 | 0.00 | 0.00 | 60 | 1010.9 |
| 20260506125005 | 77 | 207 | 8.7 | 15.6 | 0.00 | 0.00 | 0.00 | 59 | 1010.8 |
| 20260506124005 | 77 | 210 | 7.8 | 17.4 | 0.00 | 0.00 | 0.00 | 60 | 1010.7 |
| 20260506123004 | 77 | 207 | 7.8 | 18.2 | 0.00 | 0.00 | 0.00 | 61 | 1010.8 |
| 20260506122505 | 74 | 200 | 8.7 | 15.6 | 0.00 | 0.00 | 0.00 | 65 | 1010.8 |
| 20260506122004 | 72 | 183 | 4.3 | 8.7 | 0.00 | 0.00 | 0.00 | 66 | 1010.8 |
| 20260506121505 | 73 | 229 | 7.8 | 17.4 | 0.00 | 0.00 | 0.00 | 64 | 1010.7 |
| 20260506121005 | 74 | 214 | 6.1 | 18.2 | 0.00 | 0.00 | 0.00 | 63 | 1010.8 |
| 20260506120505 | 74 | 197 | 7.8 | 14.8 | 0.00 | 0.00 | 0.00 | 64 | 1010.8 |
| 20260506120005 | 73 | 193 | 3.5 | 18.2 | 0.00 | 0.00 | 0.00 | 66 | 1010.7 |
| 20260506115509 | 72 | 195 | 6.1 | 18.2 | 0.00 | 0.00 | 0.00 | 64 | 1010.7 |
| 20260506115005 | 75 | 204 | 11.3 | 19.1 | 0.00 | 0.00 | 0.00 | 63 | 1010.7 |
| 20260506114005 | 72 | 222 | 9.6 | 17.4 | 0.00 | 0.00 | 0.00 | 66 | 1010.7 |
| 20260506113505 | 74 | 211 | 6.1 | 13.0 | 0.00 | 0.00 | 0.00 | 64 | 1010.7 |
| 20260506113005 | 75 | 193 | 7.0 | 13.9 | 0.00 | 0.00 | 0.00 | 64 | 1010.6 |
| 20260506112005 | 73 | 212 | 7.0 | 14.8 | 0.00 | 0.00 | 0.00 | 70 | 1010.7 |
| 20260506111005 | 67 | 221 | 5.2 | 12.2 | 0.00 | 0.00 | 0.00 | 81 | 1010.6 |
| 20260506110505 | 63 | 213 | 7.0 | 14.8 | 0.00 | 0.00 | 0.00 | 83 | 1010.7 |
| 20260506110004 | 62 | 210 | 7.8 | 15.6 | 0.00 | 0.00 | 0.00 | 83 | 1010.8 |
| 20260506105504 | 62 | 232 | 6.1 | 12.2 | 0.00 | 0.00 | 0.00 | 84 | 1010.7 |
| 20260506105005 | 62 | 194 | 6.1 | 18.2 | 0.00 | 0.00 | 0.00 | 84 | 1010.6 |
| 20260506104504 | 62 | 224 | 7.8 | 14.8 | 0.00 | 0.00 | 0.00 | 84 | 1010.6 |
| 20260506104005 | 62 | 214 | 4.3 | 14.8 | 0.00 | 0.00 | 0.00 | 85 | 1010.8 |
| 20260506103504 | 62 | 205 | 8.7 | 13.0 | 0.00 | 0.00 | 0.00 | 85 | 1010.7 |
| 20260506102504 | 61 | 182 | 2.6 | 10.4 | 0.00 | 0.00 | 0.00 | 86 | 1010.8 |
| 20260506102005 | 61 | 205 | 5.2 | 12.2 | 0.00 | 0.00 | 0.00 | 86 | 1010.6 |
| 20260506101504 | 61 | 183 | 3.5 | 7.8 | 0.00 | 0.00 | 0.00 | 86 | 1010.7 |
| 20260506101005 | 61 | 203 | 5.2 | 11.3 | 0.00 | 0.00 | 0.00 | 86 | 1010.7 |
| 20260506100504 | 61 | 180 | 3.5 | 10.4 | 0.00 | 0.00 | 0.00 | 86 | 1010.7 |
| 20260506100005 | 61 | 221 | 3.5 | 8.7 | 0.00 | 0.00 | 0.00 | 86 | 1010.7 |
| 20260506095505 | 61 | 176 | 2.6 | 8.7 | 0.00 | 0.00 | 0.00 | 85 | 1010.6 |
| 20260506095004 | 61 | 181 | 4.3 | 7.0 | 0.00 | 0.00 | 0.00 | 85 | 1010.7 |
| 20260506094504 | 62 | 203 | 4.3 | 11.3 | 0.00 | 0.00 | 0.00 | 85 | 1010.6 |
| 20260506094005 | 62 | 228 | 7.0 | 14.8 | 0.00 | 0.00 | 0.00 | 85 | 1010.5 |
| 20260506093505 | 62 | 206 | 8.7 | 13.0 | 0.00 | 0.00 | 0.00 | 85 | 1010.5 |
| 20260506093005 | 62 | 214 | 6.1 | 13.9 | 0.00 | 0.00 | 0.00 | 86 | 1010.5 |
| 20260506092504 | 62 | 210 | 6.1 | 12.2 | 0.00 | 0.00 | 0.00 | 86 | 1010.5 |
| 20260506092005 | 62 | 213 | 4.3 | 12.2 | 0.00 | 0.00 | 0.00 | 86 | 1010.5 |
| 20260506091504 | 62 | 210 | 5.2 | 13.9 | 0.00 | 0.00 | 0.00 | 86 | 1010.5 |
| 20260506091004 | 62 | 221 | 7.8 | 13.0 | 0.00 | 0.00 | 0.00 | 86 | 1010.6 |
| 20260506090505 | 62 | 218 | 6.1 | 8.7 | 0.00 | 0.00 | 0.00 | 86 | 1010.6 |
| 20260506090005 | 62 | 222 | 5.2 | 10.4 | 0.00 | 0.00 | 0.00 | 86 | 1010.8 |
| 20260506085505 | 62 | 195 | 2.6 | 8.7 | 0.00 | 0.00 | 0.00 | 86 | 1010.8 |
| 20260506085005 | 62 | 205 | 5.2 | 10.4 | 0.00 | 0.00 | 0.00 | 86 | 1010.8 |
| 20260506084504 | 62 | 202 | 5.2 | 10.4 | 0.00 | 0.00 | 0.00 | 86 | 1010.7 |
| 20260506084004 | 62 | 190 | 7.8 | 11.3 | 0.00 | 0.00 | 0.00 | 86 | 1011.0 |
| 20260506083504 | 62 | 206 | 8.7 | 17.4 | 0.00 | 0.00 | 0.00 | 86 | 1010.9 |
| 20260506082504 | 62 | 209 | 5.2 | 12.2 | 0.00 | 0.00 | 0.00 | 87 | 1011.1 |
| 20260506082004 | 62 | 211 | 1.7 | 8.7 | 0.00 | 0.00 | 0.00 | 87 | 1011.1 |
| 20260506081504 | 62 | 212 | 5.2 | 13.0 | 0.00 | 0.00 | 0.00 | 87 | 1011.1 |
| 20260506081005 | 62 | 202 | 2.6 | 7.8 | 0.00 | 0.00 | 0.00 | 87 | 1011.1 |
| 20260506073504 | 62 | 205 | 5.2 | 11.3 | 0.00 | 0.00 | 0.00 | 87 | 1010.9 |
| 20260506073005 | 62 | 198 | 5.2 | 8.7 | 0.00 | 0.00 | 0.00 | 86 | 1010.9 |
| 20260506072505 | 62 | 200 | 1.7 | 8.7 | 0.00 | 0.00 | 0.00 | 86 | 1011.0 |
| 20260506072004 | 62 | 213 | 2.6 | 10.4 | 0.00 | 0.00 | 0.00 | 86 | 1011.0 |
| 20260506071504 | 62 | 194 | 4.3 | 11.3 | 0.00 | 0.00 | 0.00 | 86 | 1011.0 |
| 20260506071004 | 62 | 202 | 6.1 | 10.4 | 0.00 | 0.00 | 0.00 | 86 | 1011.1 |
| 20260506070505 | 62 | 224 | 6.1 | 11.3 | 0.00 | 0.00 | 0.00 | 86 | 1011.1 |
| 20260506062004 | 63 | 203 | 5.2 | 13.9 | 0.00 | 0.00 | 0.00 | 85 | 1011.1 |
| 20260506061504 | 63 | 210 | 4.3 | 8.7 | 0.00 | 0.00 | 0.00 | 84 | 1011.0 |
| 20260506061004 | 63 | 214 | 7.8 | 18.2 | 0.00 | 0.00 | 0.00 | 84 | 1011.0 |
| 20260506060504 | 63 | 199 | 3.5 | 11.3 | 0.00 | 0.00 | 0.00 | 84 | 1011.1 |
| 20260506051004 | 65 | 222 | 4.3 | 12.2 | 0.00 | 0.00 | 0.00 | 82 | 1011.5 |
| 20260506044504 | 65 | 186 | 11.3 | 20.0 | 0.00 | 0.00 | 0.00 | 82 | 1011.7 |
| 20260506044004 | 65 | 228 | 5.2 | 13.0 | 0.00 | 0.00 | 0.00 | 82 | 1011.7 |
| 20260506043004 | 65 | 195 | 5.2 | 17.4 | 0.00 | 0.00 | 0.00 | 82 | 1011.7 |
| 20260506042504 | 65 | 182 | 5.2 | 15.6 | 0.00 | 0.00 | 0.00 | 81 | 1011.7 |
| 20260506042004 | 65 | 223 | 5.2 | 13.9 | 0.00 | 0.00 | 0.00 | 81 | 1011.7 |
| 20260506041504 | 65 | 202 | 8.7 | 18.2 | 0.00 | 0.00 | 0.00 | 81 | 1011.6 |
| 20260506041005 | 65 | 210 | 5.2 | 12.2 | 0.00 | 0.00 | 0.00 | 81 | 1011.6 |
| 20260506040504 | 65 | 210 | 5.2 | 11.3 | 0.00 | 0.00 | 0.00 | 81 | 1011.7 |
| 20260506035504 | 65 | 208 | 4.3 | 14.8 | 0.00 | 0.00 | 0.00 | 81 | 1011.6 |
| 20260506035005 | 65 | 210 | 5.2 | 12.2 | 0.00 | 0.00 | 0.00 | 80 | 1011.6 |
| 20260506034004 | 65 | 176 | 5.2 | 15.6 | 0.00 | 0.00 | 0.00 | 80 | 1011.6 |
| 20260506033505 | 65 | 168 | 7.8 | 11.3 | 0.00 | 0.00 | 0.00 | 80 | 1011.6 |
| 20260506033006 | 65 | 206 | 1.7 | 12.2 | 0.00 | 0.00 | 0.00 | 80 | 1011.6 |
| 20260506032503 | 65 | 183 | 7.0 | 12.2 | 0.00 | 0.00 | 0.00 | 80 | 1011.7 |
| 20260506032005 | 65 | 208 | 3.5 | 8.7 | 0.00 | 0.00 | 0.00 | 80 | 1011.6 |
| 20260506031504 | 65 | 190 | 4.3 | 10.4 | 0.00 | 0.00 | 0.00 | 79 | 1011.7 |
| 20260506031004 | 65 | 200 | 4.3 | 12.2 | 0.00 | 0.00 | 0.00 | 80 | 1011.7 |
| 20260506030504 | 65 | 196 | 5.2 | 11.3 | 0.00 | 0.00 | 0.00 | 79 | 1011.7 |
| 20260506030005 | 65 | 190 | 5.2 | 12.2 | 0.00 | 0.00 | 0.00 | 79 | 1011.7 |
| 20260506025504 | 65 | 203 | 5.2 | 11.3 | 0.00 | 0.00 | 0.00 | 79 | 1011.8 |
| 20260506025004 | 65 | 176 | 8.7 | 13.9 | 0.00 | 0.00 | 0.00 | 79 | 1011.7 |
| 20260506024504 | 65 | 214 | 7.0 | 10.4 | 0.00 | 0.00 | 0.00 | 79 | 1011.8 |
| 20260506024004 | 65 | 203 | 5.2 | 13.0 | 0.00 | 0.00 | 0.00 | 79 | 1011.7 |
| 20260506023504 | 65 | 187 | 6.1 | 11.3 | 0.00 | 0.00 | 0.00 | 79 | 1011.8 |
| 20260506023004 | 65 | 202 | 4.3 | 10.4 | 0.00 | 0.00 | 0.00 | 79 | 1011.8 |
| 20260506022504 | 65 | 221 | 7.0 | 13.0 | 0.00 | 0.00 | 0.00 | 79 | 1011.8 |
| 20260506021006 | 65 | 202 | 6.1 | 11.3 | 0.00 | 0.00 | 0.00 | 78 | 1011.7 |
| 20260506020504 | 65 | 218 | 6.1 | 13.9 | 0.00 | 0.00 | 0.00 | 77 | 1011.7 |
| 20260506020004 | 66 | 234 | 7.0 | 11.3 | 0.00 | 0.00 | 0.00 | 77 | 1011.7 |
| 20260506015005 | 66 | 207 | 5.2 | 8.7 | 0.00 | 0.00 | 0.00 | 76 | 1011.6 |
| 20260506014504 | 66 | 200 | 6.1 | 10.4 | 0.00 | 0.00 | 0.00 | 75 | 1011.6 |
| 20260506012504 | 67 | 220 | 3.5 | 8.7 | 0.00 | 0.00 | 0.00 | 73 | 1011.3 |
| 20260506012004 | 67 | 227 | 0.9 | 10.4 | 0.00 | 0.00 | 0.00 | 72 | 1011.2 |
| 20260506011504 | 67 | 195 | 5.2 | 13.0 | 0.00 | 0.00 | 0.00 | 72 | 1011.1 |
| 20260506011004 | 67 | 190 | 5.2 | 13.0 | 0.00 | 0.00 | 0.00 | 71 | 1011.0 |
| 20260506010504 | 67 | 222 | 4.3 | 12.2 | 0.00 | 0.00 | 0.00 | 71 | 1011.0 |
| 20260506010003 | 68 | 204 | 4.3 | 11.3 | 0.00 | 0.00 | 0.00 | 70 | 1011.0 |
| 20260506005504 | 68 | 190 | 6.1 | 13.9 | 0.00 | 0.00 | 0.00 | 70 | 1011.0 |
| 20260506004004 | 68 | 194 | 6.1 | 15.6 | 0.00 | 0.00 | 0.00 | 69 | 1010.8 |
| 20260506003504 | 68 | 205 | 8.7 | 13.9 | 0.00 | 0.00 | 0.00 | 69 | 1010.7 |
| 20260506003005 | 68 | 202 | 7.0 | 18.2 | 0.00 | 0.00 | 0.00 | 69 | 1010.6 |
| 20260506002504 | 68 | 189 | 7.0 | 17.4 | 0.00 | 0.00 | 0.00 | 69 | 1010.5 |
| 20260506002004 | 69 | 216 | 5.2 | 10.4 | 0.00 | 0.00 | 0.00 | 68 | 1010.6 |
| 20260506001532 | 69 | 191 | 6.1 | 12.2 | 0.00 | 0.00 | 0.00 | 68 | 1010.5 |
| 20260506001004 | 69 | 211 | 6.1 | 13.0 | 0.00 | 0.00 | 0.00 | 68 | 1010.5 |
| 20260506000506 | 69 | 198 | 5.2 | 11.3 | 0.00 | 0.00 | 0.00 | 68 | 1010.6 |
| 20260506000005 | 69 | 203 | 4.3 | 14.8 | 0.00 | 0.00 | 0.00 | 68 | 1010.6 |
| 20260505235505 | 69 | 206 | 6.1 | 13.9 | 0.00 | 0.00 | 0.00 | 67 | 1010.6 |
| 20260505234505 | 69 | 200 | 4.3 | 15.6 | 0.00 | 0.00 | 0.00 | 66 | 1010.5 |
| 20260505233505 | 70 | 195 | 4.3 | 10.4 | 0.00 | 0.00 | 0.00 | 66 | 1010.5 |
| 20260505233006 | 70 | 193 | 5.2 | 12.2 | 0.00 | 0.00 | 0.00 | 65 | 1010.5 |
| 20260505232505 | 70 | 212 | 2.6 | 13.0 | 0.00 | 0.00 | 0.00 | 65 | 1010.3 |
| 20260505232006 | 71 | 236 | 6.1 | 11.3 | 0.00 | 0.00 | 0.00 | 65 | 1010.6 |
| 20260505231506 | 71 | 240 | 6.1 | 11.3 | 0.00 | 0.00 | 0.00 | 64 | 1010.5 |
| 20260505231005 | 72 | 205 | 7.0 | 17.4 | 0.00 | 0.00 | 0.00 | 63 | 1010.5 |
| 20260505230005 | 73 | 175 | 4.3 | 8.7 | 0.00 | 0.00 | 0.00 | 61 | 1010.4 |
| 20260505225505 | 74 | 211 | 5.2 | 13.9 | 0.00 | 0.00 | 0.00 | 60 | 1010.3 |
| 20260505225005 | 74 | 212 | 8.7 | 13.9 | 0.00 | 0.00 | 0.00 | 60 | 1010.5 |
| 20260505224505 | 74 | 213 | 6.1 | 17.4 | 0.00 | 0.00 | 0.00 | 59 | 1010.3 |
| 20260505224005 | 74 | 189 | 7.8 | 11.3 | 0.00 | 0.00 | 0.00 | 59 | 1010.3 |
| 20260505223506 | 75 | 211 | 1.7 | 18.2 | 0.00 | 0.00 | 0.00 | 58 | 1010.5 |
| 20260505223005 | 75 | 211 | 7.8 | 13.9 | 0.00 | 0.00 | 0.00 | 58 | 1010.4 |
| 20260505222505 | 75 | 217 | 5.2 | 12.2 | 0.00 | 0.00 | 0.00 | 57 | 1010.4 |
| 20260505222005 | 76 | 209 | 3.5 | 13.9 | 0.00 | 0.00 | 0.00 | 55 | 1010.4 |
| 20260505221505 | 76 | 217 | 5.2 | 17.4 | 0.00 | 0.00 | 0.00 | 54 | 1010.3 |
| 20260505221005 | 77 | 201 | 7.0 | 13.9 | 0.00 | 0.00 | 0.00 | 53 | 1010.2 |
| 20260505220506 | 78 | 212 | 6.1 | 13.0 | 0.00 | 0.00 | 0.00 | 52 | 1010.1 |
| 20260505220005 | 78 | 214 | 6.1 | 10.4 | 0.00 | 0.00 | 0.00 | 51 | 1010.2 |
| 20260505215505 | 79 | 176 | 5.2 | 10.4 | 0.00 | 0.00 | 0.00 | 51 | 1010.2 |
| 20260505215005 | 79 | 225 | 7.0 | 12.2 | 0.00 | 0.00 | 0.00 | 50 | 1010.2 |
| 20260505214506 | 79 | 208 | 4.3 | 12.2 | 0.00 | 0.00 | 0.00 | 49 | 1010.0 |
| 20260505214005 | 80 | 223 | 6.1 | 13.0 | 0.00 | 0.00 | 0.00 | 48 | 1009.9 |
| 20260505213505 | 80 | 217 | 7.8 | 17.4 | 0.00 | 0.00 | 0.00 | 47 | 1009.9 |
| 20260505213005 | 80 | 210 | 8.7 | 18.2 | 0.00 | 0.00 | 0.00 | 47 | 1009.8 |
| 20260505212505 | 81 | 201 | 7.8 | 17.4 | 0.00 | 0.00 | 0.00 | 46 | 1009.8 |
| 20260505212005 | 81 | 206 | 5.2 | 12.2 | 0.00 | 0.00 | 0.00 | 47 | 1009.8 |